[[{"header":{"parameterUnit":"m.s-1","parameterCategory":1,"la1":30.2991,"la2":30.254,"lo1":-89.0895,"lo2":-89.0444,"dy":0.0017,"dx":0.0017,"nx":28,"ny":28,"refTime":"2024-09-27T09:00:00:Z","depth":0,"parameterNumber":2,"parameterNumberName":"U-component_of_WINDS"},"data":[0,0,0,0,0,0,0,0,0,0,0,0,0,0,0,0,0,0,0,0,0,0,0,0,0,0,0,0,0,0,0,0,0,0,0,0,0,0,0,0,0,0,0,0,0,0,0,0,0,0,0,0,0,0,0,0,0,0,4.0183,4.0185,0,4.0379,4.0381,4.0384,4.0381,4.0378,4.0376,4.0373,4.0579,4.0586,4.0594,0,0,0,0,0,0,0,0,0,0,0,0,0,3.9808,3.9815,4.0182,4.0185,4.0187,4.0379,4.0381,4.0384,4.0381,4.0378,4.0375,4.0372,4.0576,4.0585,4.0595,0,0,0,0,0,0,0,0,0,0,0,0,0,3.9984,3.9817,4.0182,4.0209,4.0213,4.0378,4.0382,4.0385,4.0382,4.0378,4.0374,4.037,4.0573,4.0585,4.0596,4.0749,0,0,4.0633,4.0638,0,0,0,0,0,0,0,0,3.9974,3.9998,4.0202,4.0207,4.0212,4.0351,4.0325,4.0507,4.0383,4.0318,4.0373,4.0369,4.0507,4.0524,4.0569,4.0758,4.0767,4.0634,4.0641,4.0646,4.0649,0,0,0,0,0,0,0,3.9962,3.999,4.026,4.0205,4.0212,4.0212,4.0233,4.0359,4.0432,4.0323,4.0324,4.0347,4.0509,4.0558,4.0574,4.077,4.0633,4.0644,4.0651,4.0656,4.1094,4.1099,0,0,0,0,0,0,3.9944,3.998,4.0254,4.0266,4.0081,4.0222,4.0245,4.0311,4.0431,4.0445,4.035,4.0346,4.054,4.056,4.0581,4.0768,4.0646,4.0657,4.0664,4.109,4.1095,4.11,0,0,0,0,0,0,3.9936,3.9968,4.0246,4.0123,4.0158,4.0233,4.0306,4.0317,4.0366,4.0451,4.0464,4.0387,4.0537,4.0565,4.0707,4.0775,4.0662,4.0673,4.1085,4.1092,4.1098,4.1141,0,0,0,0,0,0,3.9925,3.9965,4.0023,4.0124,4.0165,4.0367,4.0311,4.0323,4.0386,4.0383,4.0489,4.0503,4.0536,4.0689,4.0719,4.0789,4.0683,4.1079,4.1088,4.1096,4.1134,4.1148,4.1161,0,0,0,0,0,3.9912,4.0028,4.0026,4.0059,4.0238,4.0371,4.0394,4.0429,4.0391,4.0451,4.0505,4.0499,4.0762,4.0704,4.0737,4.0812,4.1075,4.1085,4.1095,4.1128,4.1146,4.1161,0,0,0,0,0,0,3.9935,4.0042,4.0041,4.0193,4.0273,4.037,4.0446,4.0447,4.054,4.0533,4.0574,4.0598,4.074,4.0791,4.0723,4.0966,4.0914,4.0931,4.0928,4.0945,4.0958,4.0943,4.0692,0,0,0,0,0,3.9957,4.0055,4.0144,4.027,4.031,4.0371,4.043,4.045,4.0535,4.0569,4.0634,4.0717,4.0819,4.0885,4.0983,4.1141,4.1165,4.1209,4.1223,4.1234,4.1248,4.1336,4.1357,4.1134,4.1134,4.1133,0,0,4.0006,4.0076,4.0136,4.0277,4.034,4.0441,4.04,4.0508,4.0584,4.0586,4.0724,4.0774,4.087,4.1021,4.1091,4.1067,4.1315,4.1247,4.1254,4.1263,4.1348,4.1369,4.1388,4.1141,4.1139,4.1138,0,0,4.0145,4.0208,4.032,4.0384,4.0481,4.0521,4.0548,4.0646,4.0679,4.0817,4.0821,4.0912,4.1086,4.1155,4.1212,4.1377,4.1375,4.1408,4.1479,4.1564,4.1581,4.1597,4.1656,4.1677,4.1422,4.1423,4.1423,0,4.0193,4.0344,4.0377,4.0487,4.0549,4.0554,4.0668,4.073,4.0854,4.0898,4.0869,4.1087,4.1153,4.1319,4.1359,4.1406,4.1438,4.1396,4.1576,4.1592,4.1607,4.1664,4.1686,4.1426,4.1425,4.1425,4.1425,0,4.0398,4.0503,4.0582,4.07,4.0771,4.0882,4.0934,4.1002,4.1016,4.106,4.1201,4.1279,4.1393,4.1435,4.145,4.1604,4.1586,4.1567,4.1515,4.1631,4.1685,4.1707,4.1431,4.1429,4.1428,4.1428,0,0,4.0557,4.0692,4.0721,4.0774,4.0882,4.0964,4.1076,4.1186,4.1244,4.133,4.1425,4.1572,4.1554,4.1619,4.1643,4.1717,4.1843,4.1689,4.1692,4.1714,4.2018,4.2032,4.2057,4.1843,4.1847,4.185,4.201,0,4.0707,4.0904,4.0938,4.111,4.1208,4.1214,4.1312,4.1389,4.1432,4.1523,4.1571,4.1675,4.1643,4.1683,4.1757,4.1812,4.1905,4.1801,4.1933,4.1937,4.1908,4.2085,4.21,4.2247,4.2031,4.2035,4.2038,0,4.0909,4.0998,4.118,4.1274,4.1316,4.1403,4.1507,4.1592,4.168,4.1707,4.178,4.1794,4.1912,4.1855,4.2018,4.1947,4.2003,4.2039,4.2045,4.2059,4.1994,4.2103,4.2295,4.2316,4.2071,4.2068,4.2066,0,4.1006,4.1173,4.1303,4.1349,4.1462,4.1522,4.1573,4.1656,4.172,4.1812,4.1854,4.1958,4.2015,4.2096,4.2139,4.2094,4.23,4.2247,4.2326,4.2325,4.2368,4.2365,4.2571,4.2405,4.2405,4.2404,4.2404,0,4.1171,4.1282,4.1348,4.1428,4.1553,4.1591,4.1714,4.1764,4.1838,4.1929,4.1942,4.2027,4.2078,4.2171,4.2206,4.2336,4.2362,4.2387,4.2395,4.2386,4.2383,4.2423,4.2414,4.241,4.2409,4.2408,4.2407,0,4.13,4.1349,4.1492,4.1586,4.1613,4.1701,4.1783,4.1861,4.1904,4.2019,4.2048,4.2117,4.2227,4.2278,4.2415,4.2438,4.2586,4.2587,4.2556,4.2559,4.2635,4.2627,4.2874,4.2909,4.2719,4.2721,4.2722,0,4.1402,4.1487,4.1591,4.1651,4.1703,4.1801,4.1866,4.1907,4.1975,4.2081,4.2147,4.2258,4.2348,4.2524,4.2587,4.2692,4.2696,4.2775,4.2712,4.27,4.2697,4.2691,4.27,4.2787,4.2789,4.279,4.2791,0,4.1577,4.1596,4.1688,4.179,4.1866,4.1948,4.2029,4.2078,4.2133,4.2208,4.232,4.239,4.2529,4.2639,4.2748,4.2801,4.2806,4.2811,4.2835,4.2826,4.2804,4.2817,4.2587,4.2805,4.2804,4.2803,4.2802,4.2801,4.1696,4.1771,4.1856,4.1958,4.2023,4.2098,4.2176,4.2229,4.2322,4.2437,4.2457,4.2576,4.2663,4.2809,4.2867,4.2962,4.2943,4.2978,4.2986,4.2994,4.2998,4.2789,4.2982,4.2981,4.2981,4.2981,4.2981,0,4.1871,4.1925,4.2019,4.213,4.2211,4.2207,4.2296,4.2364,4.2468,4.2548,4.2636,4.2765,4.2872,4.2943,4.3051,4.3114,4.3119,4.3141,4.3137,4.3149,4.3009,4.2977,4.3135,4.3135,4.3135,4.3135,4.3135,4.3135,4.1971,4.21,4.2129,4.229,4.2345,4.246,4.2511,4.2581,4.2644,4.2787,4.2875,4.292,4.2997,4.3111,4.3209,4.3227,4.3266,4.3289,4.3307,4.3175,4.3159,4.3143,4.3114,4.3298,4.3298,4.3439,4.3441,4.3441]},{"header":{"parameterUnit":"m.s-1","parameterCategory":1,"la1":30.2991,"la2":30.254,"lo1":-89.0895,"lo2":-89.0444,"dy":0.0017,"dx":0.0017,"nx":28,"ny":28,"refTime":"2024-09-27T09:00:00:Z","depth":0,"parameterNumber":3,"parameterNumberName":"V-component_of_WINDS"},"data":[0,0,0,0,0,0,0,0,0,0,0,0,0,0,0,0,0,0,0,0,0,0,0,0,0,0,0,0,0,0,0,0,0,0,0,0,0,0,0,0,0,0,0,0,0,0,0,0,0,0,0,0,0,0,0,0,0,0,2.5258,2.526,0,2.5497,2.55,2.5503,2.5534,2.5532,2.553,2.5528,2.5779,2.5787,2.5796,0,0,0,0,0,0,0,0,0,0,0,0,0,2.4833,2.484,2.5257,2.526,2.5263,2.5497,2.55,2.5503,2.5535,2.5532,2.5529,2.5527,2.5776,2.5786,2.5797,0,0,0,0,0,0,0,0,0,0,0,0,0,2.5039,2.4843,2.5257,2.5307,2.5314,2.5496,2.55,2.5504,2.5535,2.5532,2.5528,2.5525,2.5772,2.5785,2.5798,2.5949,0,0,2.5839,2.5845,0,0,0,0,0,0,0,0,2.5028,2.5055,2.5297,2.5304,2.5312,2.5482,2.5443,2.5654,2.5536,2.5451,2.5528,2.5524,2.5683,2.5704,2.5756,2.5961,2.5971,2.584,2.5848,2.5854,2.5857,0,0,0,0,0,0,0,2.5013,2.5045,2.5352,2.53,2.5309,2.532,2.5345,2.5483,2.5584,2.5459,2.5461,2.5489,2.5687,2.5743,2.5762,2.5975,2.584,2.5851,2.586,2.5865,2.6319,2.6323,0,0,0,0,0,0,2.4989,2.5033,2.5345,2.536,2.5158,2.533,2.5359,2.5431,2.5582,2.5602,2.5492,2.549,2.5723,2.5747,2.5771,2.5961,2.5854,2.5866,2.5874,2.6315,2.632,2.6325,0,0,0,0,0,0,2.498,2.5017,2.5335,2.5197,2.5238,2.5341,2.5422,2.5438,2.5494,2.5607,2.5626,2.5531,2.5721,2.5753,2.5905,2.597,2.5872,2.5884,2.631,2.6317,2.6322,2.6338,0,0,0,0,0,0,2.4967,2.5013,2.507,2.5198,2.5246,2.5463,2.5426,2.5445,2.5516,2.5516,2.5649,2.5668,2.5721,2.5885,2.5918,2.5986,2.5894,2.6305,2.6313,2.632,2.6333,2.6344,2.6355,0,0,0,0,0,2.4952,2.5065,2.5072,2.511,2.5318,2.5466,2.5494,2.5551,2.5521,2.5581,2.5654,2.5664,2.5956,2.59,2.5938,2.6011,2.6301,2.6311,2.632,2.6328,2.6342,2.6354,0,0,0,0,0,0,2.4943,2.5083,2.5092,2.525,2.5346,2.5471,2.5548,2.5563,2.5671,2.5667,2.5734,2.5764,2.5914,2.5977,2.5912,2.6167,2.6127,2.6144,2.612,2.6134,2.6145,2.6128,2.5905,0,0,0,0,0,2.4959,2.5066,2.5183,2.5311,2.5358,2.5444,2.5511,2.5546,2.5649,2.5691,2.5775,2.5876,2.5991,2.6066,2.6178,2.6341,2.6373,2.641,2.6421,2.6429,2.6445,2.6539,2.6558,2.6355,2.6355,2.6355,0,0,2.4994,2.5084,2.5147,2.5311,2.539,2.5501,2.5479,2.5597,2.5681,2.5709,2.5859,2.5924,2.6042,2.6201,2.6275,2.6258,2.6507,2.6441,2.6447,2.6458,2.6551,2.657,2.6587,2.6361,2.636,2.6359,0,0,2.5115,2.5192,2.5309,2.5388,2.5506,2.5563,2.5591,2.5715,2.5759,2.5909,2.5934,2.6036,2.6232,2.6316,2.6384,2.6538,2.6553,2.6573,2.6631,2.6722,2.6739,2.6753,2.6812,2.6831,2.6587,2.6587,2.6587,0,2.5145,2.5311,2.5367,2.5485,2.5558,2.5587,2.5707,2.5781,2.5931,2.5982,2.596,2.6209,2.629,2.6471,2.6509,2.6562,2.6598,2.6559,2.6731,2.6747,2.6761,2.6818,2.6839,2.6589,2.6588,2.6588,2.6588,0,2.5343,2.5459,2.5539,2.5682,2.5763,2.5882,2.5958,2.6034,2.6062,2.6122,2.6277,2.6375,2.6509,2.6554,2.6583,2.674,2.6726,2.6717,2.6679,2.6781,2.6836,2.6858,2.6591,2.6591,2.659,2.659,0,0,2.5467,2.5639,2.5668,2.5734,2.5868,2.596,2.608,2.621,2.6276,2.6378,2.6484,2.6649,2.6642,2.672,2.6759,2.6838,2.6959,2.682,2.6824,2.6846,2.7142,2.7151,2.7175,2.6968,2.6972,2.6975,2.7134,0,2.5606,2.582,2.5874,2.6059,2.6168,2.6197,2.6303,2.6398,2.6458,2.6561,2.6627,2.6745,2.6725,2.6772,2.6852,2.6927,2.702,2.6916,2.707,2.7075,2.7043,2.7203,2.7212,2.7356,2.7155,2.7159,2.7161,0,2.5797,2.5903,2.6098,2.6219,2.6267,2.6361,2.6486,2.6583,2.6692,2.673,2.6817,2.6848,2.6979,2.6931,2.7114,2.7042,2.7108,2.7154,2.7161,2.7181,2.7127,2.723,2.7404,2.7426,2.7195,2.7192,2.719,0,2.5872,2.6063,2.6205,2.6261,2.6405,2.6471,2.6535,2.664,2.6715,2.6825,2.6875,2.6998,2.7066,2.7162,2.7227,2.7186,2.7406,2.7363,2.7444,2.7443,2.7492,2.7488,2.7682,2.7528,2.7528,2.7527,2.7527,0,2.6023,2.6142,2.6241,2.6329,2.6464,2.6525,2.6658,2.6723,2.6817,2.692,2.6953,2.7049,2.7127,2.7236,2.7287,2.7433,2.7462,2.7499,2.7512,2.7499,2.7494,2.7545,2.7538,2.7533,2.7532,2.7531,2.753,0,2.6131,2.6201,2.6359,2.6482,2.6516,2.6611,2.6718,2.6806,2.6866,2.6996,2.703,2.7126,2.7255,2.7328,2.7491,2.7526,2.7689,2.7695,2.7652,2.7658,2.7737,2.773,2.7973,2.8009,2.7827,2.7829,2.783,0,2.6224,2.6317,2.645,2.6521,2.6585,2.6698,2.6775,2.684,2.6919,2.7052,2.7125,2.7255,2.7363,2.7568,2.7654,2.7779,2.7792,2.7868,2.7811,2.7795,2.7797,2.7793,2.7804,2.7879,2.788,2.7882,2.7883,0,2.6385,2.6415,2.6523,2.6645,2.6736,2.6835,2.6934,2.699,2.7072,2.716,2.7291,2.7375,2.7541,2.7672,2.7805,2.7873,2.7894,2.79,2.7926,2.7915,2.7887,2.7907,2.7683,2.7895,2.7893,2.7893,2.7892,2.7891,2.6491,2.6575,2.6683,2.6804,2.6885,2.6977,2.7066,2.7137,2.7247,2.7387,2.7418,2.7558,2.7668,2.7848,2.792,2.8032,2.8019,2.8055,2.8066,2.8075,2.8079,2.7866,2.8056,2.8056,2.8055,2.8055,2.8055,0,2.6656,2.6727,2.6837,2.6974,2.707,2.7077,2.7187,2.7268,2.739,2.7489,2.7595,2.7748,2.7876,2.7971,2.8102,2.8174,2.8187,2.8206,2.8204,2.822,2.8082,2.8048,2.8194,2.8194,2.8194,2.8194,2.8194,2.8194,2.6753,2.6898,2.6941,2.7127,2.7198,2.7334,2.7397,2.7483,2.7563,2.7732,2.7837,2.7898,2.7997,2.8136,2.8254,2.8279,2.8328,2.8347,2.8374,2.8244,2.8229,2.8215,2.8184,2.8356,2.8356,2.8503,2.8505,2.8506]}]]